User: anonymous   Login
Location: Bakov nad Jizerou
(50.4784°N, 14.9394°E)
Time: 23:48:08
(UTC+00:00)
Language:

Cosmos 1900 - Orbit

View from above orbital plane
View from above orbital plane
View from above satellite
View from above satellite

Ground track
Ground track

The orbit data is extracted from the following two-line orbital elements,

1 18665U 87101A   21263.21828150 -.00000066  00000-0  83809-5 0  9990
2 18665  66.0846 178.3802 0026402  85.2738 275.1382 14.54511787796681
Epoch (UTC): 20 September 2021 05:14:19
Eccentricity: 0.0026402
inclination: 66.0846°
perigee height: 692 km
apogee height: 729 km
right ascension of ascending node: 178.3802°
argument of perigee: 85.2738°
revolutions per day: 14.54511787
mean anomaly at epoch: 275.1382°
orbit number at epoch: 79668

The dashed part of the orbit path shows where the satellite is in the earth's shadow,  

DLR